Probability
0 0 0 0 0 0 0 0 0 0 0 0 0 0 0 0 0 0 0 0 0 0 0 0 0 0 0 0 0 0 0 0 0 0 0 0 0 0 0 0 0 0 0
0 0 0 0 0 0 0 0 0 0 0 0 0 0 0 0 0 0 0 0 0 0 0 0 0 0 0 0 0 0 0 0 0 0 0 0 0 0 0 0 0 0 0
0 0 0 0 0 0 0 0 0 0 0 0 0 0 0 0 0 0 0 0 0 0 0 0 0 0 0 0 0 0 0 0 0 0 0 0 0 0 0 0 0 0 0
0 0 0 0 0 0 0 0 0 0 0 0 0 0 0 0 0 0 0 0 0 0 0 0 0 0 0 0 0 0 0 0 0 0 0 0 0 0 0 0 0 0 0
0 0 0 0 0 0 0 0 0 0 0 0 0 0 0 0 0 0 0 0 0 0 0 0 0 0 0 0 0 0 0 0 0 0 0 0 0 0 0 0 0 0 0
0 0 0 0 0 0 0 0 0 0 0 0 0 0 0 0 0 0 0 0 0 0 0 0 0 0 0 0 0 0 0 0 0 0 0 0 0 0 0 0 0 0 0
0 0 0 0 0 0 0 0 0 0 0 0 0 0 0 0 0 0 0 0 0 0 0 0 0 0 0 0 0 0 0 0 0 0 0 0 0 0 0 0 0 0 0
0 0 0 0 0 0 0 0 0 0 0 0 0 0 0 0 0 0 0 0 0 0 0 0 0 0 0 0 0 0 0 0 0 0 0 0 0 0 0 0 0 0 0
0 0 0 0 0 0 0 0 0 0 0 0 0 0 0 0 0 0 0 0 0 0 0 0 0 0 0 0 0 0 0 0 0 0 0 0 0 0 0 0 0 0 0
0 0 0 0 0 0 0 0 0 0 0 0 0 0 0 0 0 0 0 0 0 0 0 0 0 0 0 0 0 0 0 0 0 0 0 0 0 0 0 0 0 0 0
0 0 0 0 0 0 0 0 0 0 0 0 0 0 0 0 0 0 0 0 0 0 0 0 0 0 0 0 0 0 0 0 0 0 0 0 0 0 0 0 0 0 0
0 0 0 0 0 0 0 0 0 0 0 0 0 0 0 0 0 0 0 0 0 0 0 0 0 0 0 0 0 0 0 0 0 0 0 0 0 0 0 0 0 0 0
0 0 0 0 0 0 0 0 0 0 0 0 0 0 0 0 0 0 0 0 0 0 0 0 0 0 0 0 0 0 0 0 0 0 0 0 0 0 0 0 0 0 0
0 0 0 0 0 0 0 0 0 0 0 0 0 0 0 0 0 0 0 0 0 0 0 0 0 0 0 0 0 0 0 0 0 0 0 0 0 0 0 0 0 0 0
0 0 0 0 0 0 0 0 0 0 0 0 0 0 0 0 0 0 0 0 0 0 0 0 0 0 0 0 0 0 0 0 0 0 0 0 0 0 0 0 0 0 0
0 0 0 0 0 0 0 0 0 0 0 0 0 0 0 0 0 0 0 0 0 0 0 0 0 0 0 0 0 0 0 0 0 0 0 0 0 0 0 0 0 0 0
0 0 0 0 0 0 0 0 0 0 0 0 0 0 0 0 0 0 0 0 0 0 0 0 0 0 0 0 0 0 0 0 0 0 0 0 0 0 0 0 0 0 0
0 0 0 0 0 0 0 0 0 0 0 0 0 0 0 0 0 0 0 0 0 0 0 0 0 0 0 0 0 0 0 0 0 0 0 0 0 0 0 0 0 0 0
0 0 0 0 0 0 0 0 0 0 0 0 0 0 0 0 0 0 0 0 0 0 0 0 0 0 0 0 0 0 0 0 0 0 0 0 0 0 0 0 0 0 0
0 0 0 0 0 0 0 0 0 0 0 0 0 0 0 0 0 0 0 0 0 0 0 0 0 0 0 0 0 0 0 0 0 0 0 0 0 0 0 0 0 0 0
0 0 0 0 0 0 0 0 0 0 0 0 0 0 0 0 0 0 0 0 0 0 0 0 0 0 0 0 0 0 0 0 0 0 0 0 0 0 0 0 0 0 0
0 0 0 0 0 0 0 0 0 0 0 0 0 0 0 0 0 0 0 0 0 0 0 0 0 0 0 0 0 0 0 0 0 0 0 0 0 0 0 0 0 0 0
0 0 0 0 0 0 0 0 0 0 0 0 0 0 0 0 0 0 0 0 0 0 0 0 0 0 0 0 0 0 0 0 0 0 0 0 0 0 0 0 0 0 0
0 0 0 0 0 0 0 0 0 0 0 0 0 0 0 0 0 0 0 0 0 0 0 0 0 0 0 0 0 0 0 0 0 0 0 0 0 0 0 0 0 0 0
0 0 0 0 0 0 0 0 0 0 0 0 0 0 0 0 0 0 0 0 0 0 0 0 0 0 0 0 0 0 0 0 0 0 0 0 0 0 0 0 0 0 0
0 0 0 0 0 0 0 0 0 0 0 0 0 0 0 0 0 0 0 0 0 0 0 0 0 0 0 0 0 0 0 0 0 0 0 0 0 0 0 0 0 0 0
Wind_Speed
4 4 6 8 8 8 8 9 10 11 12 13 13 14 15 16 18 18 19 20 21 22 22 23 23 24 25 25 25 25 26 26 26 26 26 27 27 26 27 27 25 15 25
6 3 9 9 9 8 8 9 9 10 11 12 13 14 15 16 17 18 18 19 20 21 22 22 23 24 24 24 25 25 25 26 26 26 25 23 25 26 26 26 26 18 26
5 3 6 10 9 9 8 8 9 9 10 11 12 13 14 15 16 17 18 18 19 20 21 21 22 23 23 24 24 24 25 25 26 25 23 13 16 24 25 26 26 26 26
6 5 3 11 10 9 8 8 8 9 9 10 12 13 13 14 15 16 17 18 18 19 19 20 21 22 22 23 23 24 24 24 25 24 13 12 12 21 25 25 25 26 26
5 4 4 12 10 9 8 8 7 8 9 10 11 12 12 13 15 15 16 16 17 18 18 19 20 21 22 22 23 23 24 24 24 18 11 11 10 20 25 25 25 25 25
5 3 4 12 10 9 8 7 7 7 8 9 11 11 12 13 14 14 15 15 16 16 17 18 19 20 21 21 22 23 23 24 19 10 10 10 10 20 25 25 25 25 25
6 3 2 11 10 9 8 7 7 7 8 9 10 11 11 12 13 13 14 14 15 15 16 17 18 19 19 20 21 22 23 23 15 10 10 10 13 24 25 25 25 25 25
6 4 1 10 11 9 8 7 7 7 8 8 9 11 11 11 12 12 13 13 14 14 15 16 17 18 19 20 21 21 22 22 15 12 10 10 19 26 26 26 25 25 25
6 5 3 4 5 7 7 7 7 7 7 8 9 10 10 11 11 12 12 12 13 13 14 15 16 17 18 19 20 21 21 22 12 9 12 10 22 26 26 26 26 26 26
5 5 5 4 5 4 3 6 7 7 7 7 8 9 10 11 11 11 10 11 12 13 14 15 16 17 18 19 19 20 20 16 8 8 7 12 24 26 27 27 27 26 26
6 4 5 5 5 5 3 4 5 6 7 7 6 9 9 4 4 6 8 11 11 12 13 15 16 17 17 17 19 19 15 6 7 6 6 18 24 25 26 26 27 27 27
9 7 5 6 6 5 4 4 3 3 4 5 4 5 4 3 2 5 8 10 11 12 13 14 15 15 12 6 11 14 5 7 6 6 9 22 23 24 25 26 26 27 27
9 8 8 7 6 6 4 4 3 2 3 4 5 5 4 3 2 3 2 4 5 7 5 8 8 5 5 5 5 5 6 5 4 5 9 21 23 24 25 26 26 27 27
9 10 9 8 7 6 5 4 4 3 3 3 4 5 4 2 2 1 1 1 1 2 2 3 3 4 5 5 5 5 6 5 4 4 7 20 22 23 25 26 26 27 28
12 12 10 9 9 7 6 5 5 4 4 4 4 5 5 4 3 2 1 0 1 1 1 2 3 4 4 5 5 6 6 7 7 6 6 17 21 22 24 25 27 28 28
15 14 11 11 10 8 7 6 5 5 5 4 4 5 6 4 4 3 2 1 1 1 1 1 3 3 3 4 5 6 7 7 7 7 6 10 18 21 23 25 26 28 29
14 13 13 13 11 10 9 8 6 5 5 5 5 6 6 5 5 4 3 2 2 2 2 2 3 3 4 4 5 7 7 7 7 8 8 6 8 16 22 25 26 28 29
12 13 14 13 12 11 9 8 5 5 6 5 5 5 7 6 6 4 3 3 3 2 2 2 3 3 4 4 5 6 6 6 8 8 7 7 6 7 13 23 26 27 29
15 14 15 13 14 13 10 7 6 5 6 5 5 5 6 7 7 5 4 4 3 3 3 4 2 3 4 5 6 6 6 6 8 9 7 8 7 8 7 16 24 27 29
13 14 15 15 13 11 7 5 4 4 5 5 5 6 7 6 7 6 4 5 4 3 3 3 4 4 4 5 7 7 7 8 7 7 7 7 6 9 9 10 11 16 26
13 15 16 16 13 11 6 6 5 5 5 5 6 8 8 8 8 7 5 5 4 4 5 4 3 4 4 3 4 5 6 7 8 6 5 6 7 9 8 9 9 9 11
17 18 17 18 16 15 11 7 4 4 4 5 5 7 9 9 8 7 7 5 5 4 5 5 4 3 3 2 2 4 5 4 3 6 6 7 8 6 8 11 10 11 10
19 21 19 20 18 16 12 6 3 2 2 4 6 7 8 9 9 8 8 6 6 6 5 6 5 5 4 3 3 2 3 5 7 5 6 7 6 6 7 8 11 11 13
21 17 18 18 18 16 15 13 12 11 10 10 7 7 7 9 9 9 8 8 7 6 6 6 6 5 5 4 3 5 6 5 5 8 5 4 6 8 8 10 11 12 13
16 15 16 16 17 17 17 18 16 14 9 5 5 7 8 7 8 8 8 8 7 6 7 7 6 6 5 5 5 4 5 6 7 8 13 11 7 6 7 8 9 10 12
11 13 14 16 18 17 19 18 19 18 12 9 9 9 8 6 6 8 9 8 8 7 7 8 7 7 7 7 6 5 5 6 6 7 10 14 14 10 8 7 9 10 10
Wind_Direction
195 228 171 123 109 94 80 69 61 55 49 45 42 41 40 39 37 34 32 31 30 28 28 28 27 27 27 26 24 24 25 27 25 21 16 9 4 3 5 5 3 356 359
164 204 147 128 115 101 87 75 66 59 53 48 45 43 41 40 37 34 32 31 30 28 27 27 26 26 26 24 24 23 25 27 23 20 17 9 360 359 2 3 1 357 357
133 114 127 132 121 109 95 82 73 64 56 51 47 44 42 40 38 34 32 31 29 29 28 27 26 25 25 23 22 23 25 27 23 20 15 6 353 356 359 360 358 357 355
132 108 118 136 127 117 104 92 81 71 62 55 51 46 43 41 39 34 32 31 29 28 27 26 26 24 24 22 21 22 23 26 23 19 11 360 351 351 357 358 356 354 352
129 118 164 139 133 123 112 100 87 77 68 60 55 48 44 42 40 33 32 30 29 28 27 26 25 23 22 20 19 20 21 23 23 16 4 355 347 347 355 356 354 351 348
138 125 179 145 140 131 122 110 96 83 73 65 59 51 45 43 41 33 32 31 29 28 26 26 24 23 21 18 18 18 19 21 25 7 360 353 341 345 353 353 351 348 346
148 137 193 153 147 140 131 119 106 92 81 71 65 56 48 44 42 34 31 31 29 27 26 25 23 22 20 18 17 17 17 19 21 4 355 352 334 349 350 350 348 346 344
149 128 102 161 152 147 140 131 117 104 92 79 72 64 53 46 41 35 29 31 29 27 25 24 23 22 20 17 16 16 16 19 14 0 351 346 338 347 347 347 345 343 340
148 130 100 83 124 145 144 141 129 115 102 89 81 73 59 50 42 36 28 29 29 27 25 24 22 21 20 16 15 14 15 13 13 356 352 337 339 343 343 343 342 340 337
158 149 139 120 110 99 97 147 137 125 112 98 89 83 69 57 45 36 25 26 28 27 23 23 22 21 20 15 11 11 13 12 359 351 345 328 338 339 339 339 338 336 333
182 176 160 152 147 143 144 138 123 121 116 100 86 91 86 75 60 32 18 28 27 27 22 22 21 20 21 12 7 8 10 359 349 344 335 329 335 335 335 335 333 332 329
191 191 182 172 167 164 153 120 117 109 109 116 112 106 107 97 74 63 31 32 29 29 23 21 21 20 18 7 360 2 355 345 344 335 329 328 330 331 330 330 329 327 326
189 189 186 183 175 168 156 151 146 136 134 138 142 139 129 110 78 69 48 29 21 29 23 16 15 10 3 354 346 337 331 332 325 318 316 322 325 326 326 325 325 324 322
186 195 187 183 179 179 169 164 162 160 159 163 165 157 147 140 131 121 96 43 30 18 12 10 2 350 344 334 323 313 309 307 301 298 300 318 321 322 322 322 321 320 319
195 195 190 185 185 180 174 178 172 175 175 173 170 172 166 160 161 160 159 113 10 8 6 348 339 328 321 311 300 298 294 291 287 283 293 310 317 319 319 318 318 317 316
200 197 191 190 190 182 181 184 180 180 177 173 178 183 179 171 170 171 179 201 252 267 280 292 290 292 289 285 282 280 280 280 277 277 279 298 310 316 317 316 315 314 312
198 195 192 194 190 188 189 190 185 182 176 181 186 187 185 181 178 177 185 211 230 236 257 269 278 269 270 274 275 277 275 268 272 279 282 278 288 307 313 315 313 311 310
193 194 196 196 191 195 193 190 184 182 182 187 185 186 191 190 185 180 190 214 222 221 233 252 255 261 268 272 271 271 272 271 273 276 276 275 277 288 303 309 310 311 310
197 195 196 198 192 195 193 187 185 183 190 189 185 189 195 194 190 184 196 213 215 217 228 251 250 238 263 274 274 268 261 265 271 276 274 275 275 282 285 301 307 310 308
198 198 199 200 195 187 180 173 180 196 202 195 193 196 194 195 192 188 199 213 211 216 230 234 251 251 247 264 283 284 269 265 264 261 264 272 277 284 289 290 296 301 303
198 200 201 201 194 181 174 178 183 204 201 201 203 200 196 195 192 190 201 204 206 213 224 228 239 264 263 255 279 287 271 257 250 251 251 263 273 279 282 287 288 287 293
203 204 204 204 197 194 193 177 174 174 189 198 198 199 198 195 194 197 198 203 207 214 226 229 218 241 260 264 276 309 314 298 255 252 251 261 270 274 283 292 289 288 286
208 207 206 205 201 197 186 163 145 135 147 177 198 203 201 196 196 198 196 199 205 206 219 225 216 220 245 252 206 229 287 296 307 261 243 257 262 271 278 286 287 288 291
214 207 207 203 201 195 185 187 187 193 201 200 192 192 192 194 196 198 198 200 205 207 217 226 222 213 222 249 235 219 221 238 286 302 285 256 260 275 276 288 291 290 288
212 204 205 202 203 197 195 198 201 209 209 179 175 185 193 197 199 199 200 200 206 210 216 222 227 222 218 232 234 232 240 243 235 264 291 297 285 264 268 274 281 285 285
204 201 200 202 206 200 199 203 206 209 198 184 189 193 197 198 202 204 205 204 207 210 216 221 223 227 229 233 240 236 236 241 247 251 275 291 295 290 274 271 276 278 279